DL1NER Weather Reports


time (UTC)temp
F
wind
direction
speed
knots
gust
knots
rain 1hr
in
rain 24hr
in
rain mn
in
humidity
%
barometer
mb
20260507084010 52 280 3.5 8.7 0.02 0.07 0.07 90 1012.6
20260507083010 51 235 4.3 9.6 0.02 0.07 0.07 89 1012.5
20260507082010 51 228 3.5 7.8 0.02 0.06 0.06 90 1012.4
20260507081010 51 283 1.7 6.1 0.02 0.06 0.06 90 1012.2
20260507080011 51 283 1.7 6.1 0.02 0.06 0.06 90 1012.2
20260507075009 51 261 1.7 4.3 0.02 0.06 0.06 89 1012.1
20260507074010 50 261 2.6 7.0 0.02 0.06 0.06 88 1012.0
20260507073009 51 252 1.7 5.2 0.02 0.05 0.05 88 1011.7
20260507072010 51 252 1.7 5.2 0.02 0.05 0.05 88 1011.7
20260507071010 51 234 2.6 7.0 0.02 0.05 0.05 88 1011.6
20260507070012 51 234 1.7 4.3 0.01 0.04 0.04 89 1011.5
20260507065011 51 250 2.6 7.0 0.01 0.04 0.04 88 1011.5
20260507064009 51 215 2.6 7.0 0.01 0.04 0.04 88 1011.4
20260507063011 51 209 1.7 6.1 0.00 0.03 0.03 88 1011.3
20260507062010 51 244 2.6 6.1 0.00 0.03 0.03 88 1011.2
20260507061010 51 246 2.6 7.0 0.00 0.03 0.03 89 1011.1
20260507060010 51 248 1.7 6.1 0.00 0.03 0.03 89 1011.0
20260507055009 51 273 1.7 7.0 0.00 0.03 0.03 89 1010.8
20260507054010 51 223 1.7 7.8 0.00 0.03 0.03 89 1010.8
20260507053009 50 234 3.5 10.4 0.00 0.03 0.03 89 1010.7
20260507052010 50 194 1.7 7.8 0.00 0.03 0.03 89 1010.7
20260507051009 50 197 2.6 6.1 0.00 0.03 0.03 89 1010.5
20260507050010 50 196 0.9 4.3 0.00 0.03 0.03 89 1010.4
20260507045010 50 197 1.7 5.2 0.00 0.03 0.03 89 1010.3
20260507044009 50 202 1.7 4.3 0.00 0.03 0.03 89 1010.3
20260507043009 50 200 1.7 4.3 0.00 0.03 0.03 89 1010.2
20260507042010 50 200 0.9 4.3 0.00 0.03 0.03 89 1010.1
20260507041010 50 199 1.7 6.1 0.00 0.03 0.03 89 1009.9
20260507040010 50 201 0.9 5.2 0.00 0.03 0.03 89 1009.9
20260507035010 50 223 1.7 7.0 0.00 0.03 0.03 90 1009.8
20260507034008 50 208 1.7 5.2 0.00 0.03 0.03 90 1009.7
20260507033008 50 187 0.9 5.2 0.00 0.03 0.03 90 1009.6
20260507032008 50 213 0.9 3.5 0.00 0.03 0.03 90 1009.5
20260507031008 50 213 0.9 3.5 0.00 0.03 0.03 90 1009.5
20260507030009 50 213 0.9 4.3 0.00 0.03 0.03 90 1009.4
20260507025009 50 206 0.9 3.5 0.00 0.03 0.03 90 1009.4
20260507024009 50 202 1.7 3.5 0.00 0.03 0.03 90 1009.4
20260507023013 50 200 1.7 5.2 0.00 0.03 0.03 90 1009.3
20260507022013 50 211 1.7 5.2 0.00 0.03 0.03 90 1009.3
20260507021013 50 200 1.7 7.0 0.00 0.03 0.03 90 1009.2
20260507020013 50 222 1.7 5.2 0.01 0.03 0.03 90 1009.1
20260507015013 50 220 1.7 5.2 0.01 0.03 0.03 90 1009.1
20260507014013 50 206 1.7 5.2 0.01 0.03 0.03 90 1009.1
20260507013013 50 217 1.7 4.3 0.01 0.03 0.03 90 1008.9
20260507012013 50 223 1.7 5.2 0.01 0.03 0.03 90 1008.9
20260507011013 50 209 2.6 9.6 0.01 0.03 0.03 90 1008.9
20260507010013 51 198 1.7 7.8 0.01 0.02 0.02 90 1008.9
20260507005013 51 191 2.6 7.8 0.01 0.02 0.02 90 1008.9
20260507004012 51 229 2.6 9.6 0.01 0.02 0.02 90 1009.0
20260507003012 51 224 3.5 9.6 0.01 0.02 0.02 90 1009.0
20260507002012 52 215 2.6 11.3 0.01 0.02 0.02 90 1008.9
20260507001013 52 211 3.5 11.3 0.01 0.02 0.02 90 1008.8
20260507000013 52 190 2.6 7.8 0.00 0.02 0.02 90 1008.8
20260506235012 52 194 2.6 7.0 0.01 0.02 0.02 90 1008.8
20260506234012 52 246 1.7 5.2 0.01 0.02 0.02 90 1008.7
20260506233012 52 225 2.6 6.1 0.01 0.02 0.02 90 1008.7
20260506232012 52 200 1.7 6.1 0.01 0.02 0.02 90 1008.8
20260506231012 52 229 1.7 5.2 0.01 0.02 0.02 89 1008.8
20260506230012 52 195 1.7 5.2 0.01 0.02 0.02 89 1008.7
20260506225012 53 181 2.6 6.1 0.00 0.01 0.01 89 1008.5
20260506224012 53 196 2.6 6.1 0.00 0.01 0.01 89 1008.4
20260506223012 53 237 2.6 8.7 0.00 0.01 0.01 89 1008.3
20260506222012 53 237 1.7 5.2 0.00 0.01 0.01 89 1008.2
20260506221012 53 234 0.9 5.2 0.00 0.01 0.01 89 1008.0
20260506220012 53 219 1.7 7.0 0.00 0.01 0.01 89 1008.0
20260506215011 53 240 2.6 7.8 0.00 0.07 0.07 89 1008.0
20260506214012 53 240 1.7 9.6 0.00 0.07 0.07 89 1008.1
20260506213012 53 205 2.6 7.8 0.00 0.07 0.07 88 1008.1
20260506212011 53 275 2.6 7.0 0.00 0.07 0.07 89 1008.1
20260506211012 54 238 1.7 9.6 0.00 0.07 0.07 88 1008.0
20260506210012 54 246 2.6 7.8 0.00 0.07 0.07 89 1008.0
20260506205011 54 194 0.9 4.3 0.00 0.07 0.07 89 1007.8
20260506204011 54 217 0.9 3.5 0.00 0.07 0.07 88 1007.7
20260506203011 54 224 0.9 3.5 0.00 0.07 0.07 87 1007.6
20260506202011 54 238 0.9 4.3 0.00 0.07 0.07 87 1007.6
20260506201011 54 238 0.9 2.6 0.01 0.07 0.07 86 1007.6
20260506200011 54 211 0.9 3.5 0.01 0.07 0.07 84 1007.3
20260506195012 54 211 1.7 4.3 0.02 0.07 0.07 83 1007.3
20260506194011 55 188 0.9 3.5 0.02 0.07 0.07 82 1007.2
20260506193011 55 217 1.7 4.3 0.05 0.07 0.07 82 1007.2
20260506192011 55 234 1.7 4.3 0.06 0.07 0.07 80 1007.0
20260506191011 56 228 0.9 3.5 0.06 0.06 0.06 79 1006.8
20260506190011 56 246 0.9 6.1 0.06 0.06 0.06 78 1006.7
20260506185011 56 209 0.9 2.6 0.06 0.06 0.06 76 1006.5
20260506184011 56 209 1.7 5.2 0.05 0.05 0.05 74 1006.5
20260506183011 57 235 3.5 7.0 0.02 0.02 0.02 71 1006.3
20260506182011 57 219 3.5 9.6 0.01 0.01 0.01 69 1006.3
20260506181011 57 234 2.6 8.7 0.00 0.00 0.00 70 1006.1
20260506180011 57 216 1.7 7.0 0.00 0.00 0.00 72 1005.9
20260506175011 57 237 1.7 4.3 0.00 0.00 0.00 71 1005.8
20260506174010 57 243 1.7 6.1 0.00 0.00 0.00 70 1005.6
20260506173011 58 269 2.6 3.5 0.00 0.00 0.00 69 1005.4
20260506172011 58 169 0.9 3.5 0.00 0.00 0.00 67 1005.2
20260506171010 58 103 0.9 3.5 0.00 0.00 0.00 63 1005.3
20260506170011 59 123 2.6 7.0 0.00 0.00 0.00 63 1005.2
20260506165010 59 117 2.6 5.2 0.00 0.00 0.00 65 1005.2
20260506164012 59 115 0.9 3.5 0.00 0.00 0.00 65 1005.2
20260506163011 60 115 2.6 8.7 0.00 0.00 0.00 65 1005.4
20260506162010 61 117 2.6 6.1 0.00 0.00 0.00 63 1005.3
20260506161011 61 92 1.7 3.5 0.00 0.00 0.00 63 1005.2
20260506160010 62 92 0.9 3.5 0.00 0.00 0.00 61 1005.1
20260506155010 63 92 2.6 6.1 0.00 0.00 0.00 58 1005.0
20260506154010 64 105 2.6 7.0 0.00 0.00 0.00 56 1005.1
20260506153010 65 82 1.7 7.8 0.00 0.00 0.00 56 1005.2
20260506152011 65 302 1.7 7.0 0.00 0.00 0.00 56 1005.1
20260506151010 65 279 2.6 7.0 0.00 0.00 0.00 55 1004.9
20260506150011 66 261 3.5 8.7 0.00 0.00 0.00 55 1004.9
20260506145010 66 238 4.3 7.8 0.00 0.00 0.00 54 1004.9
20260506144011 66 258 4.3 7.8 0.00 0.00 0.00 53 1004.8
20260506143009 67 267 3.5 7.8 0.00 0.00 0.00 53 1004.8
20260506142011 67 256 2.6 7.8 0.00 0.00 0.00 52 1004.8
20260506141010 67 256 2.6 7.8 0.00 0.00 0.00 52 1004.8
20260506140009 67 150 0.9 2.6 0.00 0.00 0.00 54 1004.8
20260506135009 67 238 2.6 6.1 0.00 0.00 0.00 53 1004.7
20260506134010 67 238 2.6 6.1 0.00 0.00 0.00 53 1004.7
20260506133011 67 240 1.7 6.1 0.00 0.00 0.00 54 1004.8
20260506132010 67 245 1.7 6.1 0.00 0.00 0.00 52 1004.9
20260506131009 68 261 1.7 4.3 0.00 0.00 0.00 53 1005.0
20260506130009 67 251 1.7 5.2 0.00 0.00 0.00 52 1005.3
20260506125010 67 251 1.7 5.2 0.00 0.00 0.00 52 1005.3
20260506124009 67 206 1.7 7.0 0.00 0.00 0.00 52 1005.6
20260506122009 67 194 1.7 7.0 0.00 0.00 0.00 54 1005.6
20260506121014 67 194 1.7 7.0 0.00 0.00 0.00 54 1005.6
20260506120014 67 196 1.7 6.1 0.00 0.00 0.00 53 1005.6
20260506115014 67 223 2.6 7.8 0.00 0.00 0.00 53 1005.7
20260506114014 67 155 1.7 5.2 0.00 0.00 0.00 53 1005.7
20260506113014 67 227 2.6 9.6 0.00 0.00 0.00 58 1005.8
20260506112013 67 136 3.5 7.0 0.00 0.00 0.00 61 1005.8
20260506111014 65 178 2.6 6.1 0.00 0.00 0.00 60 1005.9
20260506110014 66 111 1.7 6.1 0.00 0.00 0.00 63 1005.9
20260506105013 65 147 1.7 5.2 0.00 0.00 0.00 64 1006.0
20260506104013 65 101 2.6 7.8 0.00 0.00 0.00 60 1006.1
20260506103013 65 264 1.7 5.2 0.00 0.00 0.00 66 1006.1
20260506102013 66 206 0.9 4.3 0.00 0.00 0.00 63 1006.1
20260506101013 65 184 1.7 6.1 0.00 0.00 0.00 63 1006.2
20260506100013 65 188 0.9 3.5 0.00 0.00 0.00 67 1006.2
20260506095013 65 140 2.6 6.1 0.00 0.00 0.00 68 1006.2
20260506094013 64 249 3.5 6.1 0.00 0.00 0.00 67 1006.2
20260506093013 62 194 2.6 7.0 0.00 0.00 0.00 68 1006.2
20260506092013 62 227 2.6 6.1 0.00 0.00 0.00 73 1006.2
20260506091013 62 249 2.6 7.0 0.00 0.00 0.00 70 1006.3
20260506090013 62 228 2.6 8.7 0.00 0.00 0.00 69 1006.3
20260506085013 63 221 2.6 6.1 0.00 0.00 0.00 72 1006.4